ITY964 UZSS-UBBB

Flight info

Callsign ITY964
Flight time 2h 7m
Altitude 40000
Route OGNOB2A OGNOB Y92 BUPOR T388 POGON/N0482F400 A477 BABUM A909 RODAR M11 AMOKU
Aircraft A359/H-SDE2E3GHIJ3J4J5LM1ORWXY/LB1D1

Departure

Time 2026-04-27 06:59
Airport Samarkand International Airport (UZSS)

Arrival

Time 2026-04-27 09:07
Airport Heydar Aliyev International Airport (UBBB)
Time Latitude Longitude Altitude Speed Heading
2026-04-27 06:41 39.69700 66.99612 2214 ft 0 kts 103°
2026-04-27 06:53 39.69701 66.99623 2214 ft 3 kts 87°
2026-04-27 06:53 39.69713 66.99643 2210 ft 2 kts 19°
2026-04-27 06:53 39.69722 66.99637 2210 ft 2 kts 339°
2026-04-27 06:54 39.69732 66.99623 2211 ft 4 kts 314°
2026-04-27 06:54 39.69749 66.99565 2214 ft 10 kts 284°
2026-04-27 06:54 39.69765 66.99437 2212 ft 18 kts 278°
2026-04-27 06:54 39.69782 66.99243 2211 ft 24 kts 276°
2026-04-27 06:55 39.69799 66.99003 2212 ft 29 kts 275°
2026-04-27 06:55 39.69819 66.98728 2214 ft 32 kts 277°
2026-04-27 06:55 39.69841 66.98440 2212 ft 33 kts 276°
2026-04-27 06:55 39.69863 66.98165 2212 ft 27 kts 276°
2026-04-27 06:56 39.69884 66.97916 2211 ft 28 kts 276°
2026-04-27 06:56 39.69905 66.97656 2213 ft 29 kts 278°
2026-04-27 06:56 39.69957 66.97396 2211 ft 31 kts 286°
2026-04-27 06:56 39.70016 66.97126 2213 ft 32 kts 285°
2026-04-27 06:57 39.70069 66.97017 2213 ft 0 kts 326°
2026-04-27 06:57 39.70089 66.97004 2214 ft 9 kts 332°
2026-04-27 06:57 39.70140 66.97003 2213 ft 3 kts 45°
2026-04-27 06:58 39.70149 66.97028 2212 ft 2 kts 73°
2026-04-27 06:58 39.70134 66.97337 2218 ft 65 kts 95°
2026-04-27 06:58 39.70067 66.98198 2214 ft 124 kts 96°
2026-04-27 06:59 39.69961 66.99478 2528 ft 146 kts 97°
2026-04-27 06:59 39.69836 67.00734 3315 ft 141 kts 98°
2026-04-27 06:59 39.69747 67.02108 3644 ft 163 kts 90°
2026-04-27 06:59 39.69679 67.03645 3916 ft 183 kts 93°
2026-04-27 07:00 39.69583 67.05393 4215 ft 205 kts 94°
2026-04-27 07:00 39.69507 67.07338 4560 ft 227 kts 88°
2026-04-27 07:00 39.69897 67.09411 4921 ft 250 kts 65°
2026-04-27 07:00 39.71062 67.11166 5337 ft 267 kts 35°
2026-04-27 07:01 39.72829 67.11995 5892 ft 278 kts
2026-04-27 07:01 39.74721 67.11556 6490 ft 280 kts 333°
2026-04-27 07:01 39.76185 67.09935 7152 ft 279 kts 303°
2026-04-27 07:01 39.76843 67.07607 7799 ft 276 kts 275°
2026-04-27 07:02 39.76927 67.05147 8482 ft 276 kts 269°
2026-04-27 07:02 39.76931 67.02639 9173 ft 279 kts 269°
2026-04-27 07:02 39.76945 67.00113 9877 ft 280 kts 270°
2026-04-27 07:02 39.76970 66.97558 10357 ft 289 kts 270°
2026-04-27 07:03 39.76998 66.94876 10612 ft 305 kts 270°
2026-04-27 07:03 39.77033 66.92057 10858 ft 320 kts 270°
2026-04-27 07:03 39.76982 66.89106 11126 ft 333 kts 263°
2026-04-27 07:03 39.76548 66.86122 11513 ft 339 kts 256°
2026-04-27 07:04 39.75992 66.83121 12031 ft 343 kts 256°
2026-04-27 07:04 39.75433 66.80130 12529 ft 347 kts 256°
2026-04-27 07:04 39.74865 66.77070 13045 ft 351 kts 256°
2026-04-27 07:04 39.74291 66.73971 13553 ft 354 kts 256°
2026-04-27 07:05 39.73713 66.70845 14032 ft 357 kts 256°
2026-04-27 07:05 39.73138 66.67739 14523 ft 359 kts 256°
2026-04-27 07:05 39.72740 66.64529 15012 ft 362 kts 267°
2026-04-27 07:05 39.72842 66.61256 15519 ft 364 kts 274°
2026-04-27 07:06 39.73083 66.57968 16005 ft 367 kts 275°
2026-04-27 07:06 39.73328 66.54700 16477 ft 369 kts 274°
2026-04-27 07:06 39.73570 66.51373 16964 ft 371 kts 274°
2026-04-27 07:06 39.73809 66.48020 17442 ft 374 kts 274°
2026-04-27 07:07 39.74046 66.44650 17911 ft 376 kts 274°
2026-04-27 07:07 39.74282 66.41255 18351 ft 378 kts 274°
2026-04-27 07:07 39.74500 66.37840 18750 ft 380 kts 272°
2026-04-27 07:07 39.74623 66.34406 19158 ft 382 kts 270°
2026-04-27 07:08 39.74687 66.30949 19566 ft 383 kts 270°
2026-04-27 07:08 39.74734 66.27479 19983 ft 385 kts 270°
2026-04-27 07:08 39.74784 66.24044 20376 ft 387 kts 270°
2026-04-27 07:08 39.74846 66.20541 20760 ft 389 kts 270°
2026-04-27 07:09 39.74917 66.17021 21165 ft 391 kts 270°
2026-04-27 07:09 39.74995 66.13480 21541 ft 393 kts 270°
2026-04-27 07:09 39.75075 66.09928 21928 ft 394 kts 270°
2026-04-27 07:09 39.75158 66.06360 22317 ft 396 kts 270°
2026-04-27 07:10 39.75241 66.02769 22664 ft 398 kts 270°
2026-04-27 07:10 39.75325 65.99168 23037 ft 400 kts 270°
2026-04-27 07:10 39.75407 65.95592 23374 ft 402 kts 270°
2026-04-27 07:10 39.75487 65.91950 23681 ft 404 kts 270°
2026-04-27 07:11 39.75568 65.88291 23974 ft 406 kts 270°
2026-04-27 07:11 39.75647 65.84612 24280 ft 408 kts 270°
2026-04-27 07:11 39.75724 65.80917 24572 ft 410 kts 270°
2026-04-27 07:11 39.75799 65.77210 24858 ft 412 kts 270°
2026-04-27 07:12 39.75872 65.73483 25170 ft 413 kts 270°
2026-04-27 07:12 39.75945 65.69749 25455 ft 415 kts 270°
2026-04-27 07:12 39.76018 65.65996 25763 ft 417 kts 270°
2026-04-27 07:12 39.76092 65.62223 26046 ft 419 kts 269°
2026-04-27 07:13 39.76157 65.58483 26349 ft 420 kts 269°
2026-04-27 07:13 39.76218 65.54676 26643 ft 422 kts 269°
2026-04-27 07:13 39.76278 65.50853 26973 ft 424 kts 269°
2026-04-27 07:13 39.76338 65.47007 27294 ft 427 kts 269°
2026-04-27 07:14 39.76398 65.43141 27626 ft 429 kts 269°
2026-04-27 07:14 39.76458 65.39262 27973 ft 431 kts 269°
2026-04-27 07:14 39.76517 65.35360 28328 ft 433 kts 269°
2026-04-27 07:14 39.76576 65.31437 28692 ft 435 kts 269°
2026-04-27 07:15 39.76633 65.27546 29030 ft 438 kts 269°
2026-04-27 07:15 39.76689 65.23582 29383 ft 440 kts 269°
2026-04-27 07:15 39.76745 65.19597 29762 ft 442 kts 269°
2026-04-27 07:15 39.76799 65.15589 30106 ft 445 kts 269°
2026-04-27 07:16 39.76853 65.11557 30443 ft 447 kts 269°
2026-04-27 07:16 39.76905 65.07502 30807 ft 449 kts 269°
2026-04-27 07:16 39.76955 65.03447 31176 ft 450 kts 269°
2026-04-27 07:16 39.77005 64.99363 31540 ft 452 kts 269°
2026-04-27 07:17 39.77053 64.95276 31907 ft 453 kts 269°
2026-04-27 07:17 39.77099 64.91231 32246 ft 455 kts 269°
2026-04-27 07:17 39.77145 64.87112 32585 ft 457 kts 269°
2026-04-27 07:17 39.77189 64.82977 32935 ft 458 kts 269°
2026-04-27 07:18 39.77232 64.78830 33261 ft 459 kts 269°
2026-04-27 07:18 39.77274 64.74676 33588 ft 461 kts 269°
2026-04-27 07:18 39.77314 64.70498 33896 ft 463 kts 269°
2026-04-27 07:18 39.77353 64.66312 34168 ft 464 kts 269°
2026-04-27 07:19 39.77391 64.62115 34424 ft 465 kts 269°
2026-04-27 07:19 39.77427 64.57903 34705 ft 466 kts 269°
2026-04-27 07:19 39.77462 64.53694 35086 ft 464 kts 269°
2026-04-27 07:19 39.77496 64.49566 35489 ft 462 kts 269°
2026-04-27 07:20 39.77545 64.45395 35869 ft 461 kts 270°
2026-04-27 07:20 39.77693 64.41234 36230 ft 461 kts 271°
2026-04-27 07:20 39.77904 64.37085 36582 ft 460 kts 272°
2026-04-27 07:20 39.78132 64.32941 36949 ft 459 kts 272°
2026-04-27 07:21 39.78354 64.28809 37328 ft 458 kts 271°
2026-04-27 07:21 39.78562 64.24691 37687 ft 456 kts 271°
2026-04-27 07:21 39.78757 64.20581 38055 ft 455 kts 271°
2026-04-27 07:21 39.78939 64.16531 38393 ft 454 kts 271°
2026-04-27 07:22 39.79118 64.12442 38715 ft 453 kts 271°
2026-04-27 07:22 39.79292 64.08355 38986 ft 452 kts 271°
2026-04-27 07:22 39.79464 64.04289 39245 ft 450 kts 271°
2026-04-27 07:22 39.79634 64.00227 39501 ft 449 kts 271°
2026-04-27 07:23 39.79803 63.96179 39747 ft 448 kts 271°
2026-04-27 07:23 39.79971 63.92133 39933 ft 449 kts 271°
2026-04-27 07:23 39.80137 63.88079 39975 ft 449 kts 271°
2026-04-27 07:24 39.80468 63.79969 39980 ft 449 kts 271°
2026-04-27 07:24 39.80791 63.71915 39979 ft 449 kts 271°
2026-04-27 07:25 39.81110 63.63805 39983 ft 449 kts 271°
2026-04-27 07:25 39.81423 63.55689 39982 ft 449 kts 271°
2026-04-27 07:26 39.81731 63.47574 39984 ft 449 kts 271°
2026-04-27 07:26 39.82032 63.39513 39993 ft 449 kts 271°
2026-04-27 07:27 39.82329 63.31388 39992 ft 449 kts 271°
2026-04-27 07:27 39.82624 63.23268 39990 ft 449 kts 271°
2026-04-27 07:28 39.82927 63.15149 39994 ft 450 kts 271°
2026-04-27 07:28 39.83222 63.07074 39998 ft 450 kts 271°
2026-04-27 07:29 39.83513 62.98965 39999 ft 450 kts 271°
2026-04-27 07:29 39.83799 62.90829 39999 ft 450 kts 271°
2026-04-27 07:30 39.84079 62.82694 40001 ft 450 kts 271°
2026-04-27 07:30 39.84351 62.74612 40006 ft 450 kts 271°
2026-04-27 07:31 39.84591 62.66470 40005 ft 450 kts 270°
2026-04-27 07:31 39.84789 62.58324 40008 ft 450 kts 270°
2026-04-27 07:32 39.84984 62.50181 40008 ft 450 kts 270°
2026-04-27 07:32 39.85180 62.42084 40011 ft 451 kts 270°
2026-04-27 07:33 39.85374 62.33937 40008 ft 451 kts 270°
2026-04-27 07:33 39.85563 62.25785 40013 ft 451 kts 270°
2026-04-27 07:34 39.85746 62.17634 40016 ft 451 kts 270°
2026-04-27 07:34 39.85922 62.09535 40021 ft 451 kts 270°
2026-04-27 07:35 39.86093 62.01379 40019 ft 451 kts 270°
2026-04-27 07:35 39.86259 61.93228 40021 ft 451 kts 270°
2026-04-27 07:36 39.86418 61.85079 40021 ft 451 kts 270°
2026-04-27 07:36 39.86573 61.76919 40020 ft 451 kts 270°
2026-04-27 07:37 39.86720 61.68823 40021 ft 450 kts 270°
2026-04-27 07:37 39.86863 61.60676 40019 ft 450 kts 270°
2026-04-27 07:38 39.87000 61.52526 40019 ft 450 kts 270°
2026-04-27 07:38 39.87131 61.44382 40021 ft 450 kts 270°
2026-04-27 07:39 39.87258 61.36242 40019 ft 450 kts 270°
2026-04-27 07:39 39.87444 61.28160 40018 ft 450 kts 270°
2026-04-27 07:40 39.87661 61.20023 40019 ft 450 kts 270°
2026-04-27 07:40 39.87865 61.11893 40017 ft 449 kts 270°
2026-04-27 07:41 39.88054 61.03757 40017 ft 449 kts 270°
2026-04-27 07:41 39.88233 60.95687 40017 ft 449 kts 270°
2026-04-27 07:42 39.88408 60.87558 40014 ft 449 kts 270°
2026-04-27 07:42 39.88578 60.79427 40013 ft 449 kts 270°
2026-04-27 07:43 39.88742 60.71300 40013 ft 449 kts 270°
2026-04-27 07:43 39.88900 60.63173 40011 ft 449 kts 270°
2026-04-27 07:44 39.89052 60.55102 40011 ft 449 kts 270°
2026-04-27 07:44 39.89199 60.46978 40009 ft 449 kts 270°
2026-04-27 07:45 39.89340 60.38852 40007 ft 449 kts 270°
2026-04-27 07:45 39.89475 60.30731 40008 ft 449 kts 270°
2026-04-27 07:46 39.89597 60.22606 40008 ft 449 kts 270°
2026-04-27 07:46 39.89673 60.14535 40008 ft 448 kts 269°
2026-04-27 07:47 39.89740 60.06414 40004 ft 448 kts 269°
2026-04-27 07:47 39.89809 59.98298 39989 ft 448 kts 269°
2026-04-27 07:48 39.89875 59.90175 39995 ft 448 kts 269°
2026-04-27 07:48 39.89937 59.82117 40005 ft 448 kts 269°
2026-04-27 07:49 39.89992 59.74006 39989 ft 448 kts 269°
2026-04-27 07:49 39.90042 59.65896 40002 ft 448 kts 269°
2026-04-27 07:50 39.90086 59.57784 40003 ft 448 kts 269°
2026-04-27 07:50 39.90125 59.49731 39995 ft 448 kts 269°
2026-04-27 07:51 39.90158 59.41628 39991 ft 448 kts 269°
2026-04-27 07:51 39.90187 59.33522 39999 ft 448 kts 269°
2026-04-27 07:52 39.90193 59.25413 39995 ft 448 kts 269°
2026-04-27 07:52 39.90186 59.17309 39995 ft 448 kts 269°
2026-04-27 07:53 39.90176 59.09252 39997 ft 448 kts 269°
2026-04-27 07:53 39.90153 59.01144 40001 ft 448 kts 269°
2026-04-27 07:54 39.90119 58.93043 39994 ft 448 kts 269°
2026-04-27 07:54 39.90080 58.84935 39997 ft 448 kts 269°
2026-04-27 07:55 39.90037 58.76883 39995 ft 448 kts 269°
2026-04-27 07:55 39.89988 58.68783 39994 ft 448 kts 269°
2026-04-27 07:56 39.89933 58.60673 39990 ft 448 kts 269°
2026-04-27 07:56 39.89873 58.52566 39992 ft 448 kts 269°
2026-04-27 07:57 39.89807 58.44459 39981 ft 448 kts 268°
2026-04-27 07:57 39.89736 58.36409 39988 ft 448 kts 268°
2026-04-27 07:58 39.89658 58.28301 39984 ft 448 kts 268°
2026-04-27 07:58 39.89575 58.20197 39982 ft 448 kts 268°
2026-04-27 07:59 39.89496 58.12097 39981 ft 448 kts 268°
2026-04-27 07:59 39.89399 57.99993 39981 ft 448 kts 268°
2026-04-27 08:00 39.89328 57.91886 39978 ft 448 kts 268°
2026-04-27 08:00 39.89249 57.83770 39976 ft 448 kts 268°
2026-04-27 08:01 39.89163 57.75650 39973 ft 448 kts 268°
2026-04-27 08:01 39.89072 57.67532 39979 ft 448 kts 268°
2026-04-27 08:02 39.88976 57.59469 39976 ft 449 kts 268°
2026-04-27 08:02 39.88873 57.51339 39973 ft 449 kts 268°
2026-04-27 08:03 39.88765 57.43214 39971 ft 449 kts 268°
2026-04-27 08:03 39.88651 57.35087 39972 ft 449 kts 268°
2026-04-27 08:04 39.88533 57.27018 39968 ft 449 kts 268°
2026-04-27 08:04 39.88408 57.18893 39963 ft 449 kts 268°
2026-04-27 08:05 39.88277 57.10772 39964 ft 449 kts 268°
2026-04-27 08:05 39.88141 57.02660 39962 ft 448 kts 268°
2026-04-27 08:06 39.88001 56.94597 39960 ft 448 kts 268°
2026-04-27 08:06 39.87853 56.86490 39960 ft 448 kts 268°
2026-04-27 08:07 39.87700 56.78381 39959 ft 448 kts 268°
2026-04-27 08:07 39.87541 56.70276 39959 ft 448 kts 268°
2026-04-27 08:08 39.87377 56.62168 39958 ft 448 kts 267°
2026-04-27 08:08 39.87208 56.54123 39957 ft 448 kts 267°
2026-04-27 08:09 39.87033 56.46021 39950 ft 448 kts 267°
2026-04-27 08:09 39.86852 56.37923 39948 ft 448 kts 267°
2026-04-27 08:10 39.86665 56.29827 39945 ft 447 kts 267°
2026-04-27 08:10 39.86474 56.21787 39945 ft 447 kts 267°
2026-04-27 08:11 39.86280 56.13698 39948 ft 447 kts 267°
2026-04-27 08:11 39.86086 56.05607 39942 ft 447 kts 267°
2026-04-27 08:12 39.85886 55.97518 39942 ft 447 kts 267°
2026-04-27 08:12 39.85680 55.89437 39944 ft 447 kts 267°
2026-04-27 08:13 39.85468 55.81410 39939 ft 447 kts 267°
2026-04-27 08:13 39.85250 55.73333 39936 ft 446 kts 267°
2026-04-27 08:14 39.85026 55.65258 39940 ft 446 kts 267°
2026-04-27 08:14 39.84797 55.57188 39939 ft 446 kts 267°
2026-04-27 08:15 39.84564 55.49170 39932 ft 446 kts 267°
2026-04-27 08:15 39.84324 55.41104 39939 ft 446 kts 266°
2026-04-27 08:16 39.84078 55.33044 39933 ft 446 kts 266°
2026-04-27 08:16 39.83826 55.24982 39932 ft 446 kts 266°
2026-04-27 08:17 39.83571 55.16974 39935 ft 446 kts 266°
2026-04-27 08:17 39.83308 55.08917 39935 ft 446 kts 266°
2026-04-27 08:18 39.83047 55.00856 39939 ft 446 kts 266°
2026-04-27 08:18 39.82818 54.92792 39933 ft 446 kts 266°
2026-04-27 08:19 39.82591 54.84787 39934 ft 446 kts 266°
2026-04-27 08:19 39.82607 54.76723 39940 ft 447 kts 275°
2026-04-27 08:20 39.83893 54.68790 39939 ft 449 kts 282°
2026-04-27 08:20 39.85547 54.60946 39941 ft 450 kts 283°
2026-04-27 08:21 39.87249 54.53102 39932 ft 450 kts 283°
2026-04-27 08:21 39.88919 54.45309 39934 ft 450 kts 283°
2026-04-27 08:22 39.90576 54.37447 39930 ft 450 kts 283°
2026-04-27 08:22 39.92212 54.29577 39935 ft 450 kts 283°
2026-04-27 08:23 39.93834 54.21750 39931 ft 450 kts 283°
2026-04-27 08:23 39.95464 54.13867 39930 ft 451 kts 283°
2026-04-27 08:24 39.97090 54.05983 39927 ft 451 kts 282°
2026-04-27 08:24 39.98713 53.98087 39929 ft 451 kts 282°
2026-04-27 08:25 40.00318 53.90241 39924 ft 451 kts 282°
2026-04-27 08:25 40.01920 53.82384 39924 ft 451 kts 282°
2026-04-27 08:26 40.03526 53.74477 39924 ft 451 kts 282°
2026-04-27 08:26 40.05128 53.66562 39924 ft 451 kts 282°
2026-04-27 08:27 40.06724 53.58643 39920 ft 451 kts 282°
2026-04-27 08:27 40.08305 53.50770 39921 ft 451 kts 282°
2026-04-27 08:28 40.09892 53.42836 39928 ft 452 kts 282°
2026-04-27 08:28 40.11473 53.34898 39929 ft 452 kts 282°
2026-04-27 08:29 40.13051 53.26952 39930 ft 452 kts 282°
2026-04-27 08:29 40.14611 53.19058 39935 ft 452 kts 282°
2026-04-27 08:30 40.16178 53.11101 39936 ft 452 kts 282°
2026-04-27 08:30 40.17739 53.03141 39942 ft 452 kts 282°
2026-04-27 08:31 40.19296 52.95174 39922 ft 452 kts 281°
2026-04-27 08:31 40.20073 52.91188 39697 ft 453 kts 281°
2026-04-27 08:31 40.20837 52.87258 39342 ft 451 kts 281°
2026-04-27 08:32 40.21608 52.83287 38806 ft 451 kts 281°
2026-04-27 08:32 40.22380 52.79295 38095 ft 453 kts 281°
2026-04-27 08:32 40.23152 52.75300 37431 ft 453 kts 281°
2026-04-27 08:32 40.23922 52.71302 36771 ft 453 kts 281°
2026-04-27 08:33 40.24692 52.67304 36098 ft 454 kts 281°
2026-04-27 08:33 40.25462 52.63293 35417 ft 455 kts 281°
2026-04-27 08:33 40.26234 52.59263 34745 ft 457 kts 282°
2026-04-27 08:33 40.26996 52.55299 34282 ft 453 kts 282°
2026-04-27 08:34 40.27763 52.51309 33746 ft 451 kts 282°
2026-04-27 08:34 40.28524 52.47334 33192 ft 448 kts 282°
2026-04-27 08:34 40.29276 52.43397 32651 ft 445 kts 281°
2026-04-27 08:34 40.30021 52.39483 32133 ft 441 kts 281°
2026-04-27 08:35 40.30760 52.35598 31603 ft 438 kts 281°
2026-04-27 08:35 40.31493 52.31733 31116 ft 435 kts 281°
2026-04-27 08:35 40.32219 52.27893 30599 ft 433 kts 281°
2026-04-27 08:35 40.32940 52.24075 30092 ft 430 kts 281°
2026-04-27 08:36 40.33646 52.20331 29541 ft 428 kts 281°
2026-04-27 08:36 40.34355 52.16563 29026 ft 424 kts 281°
2026-04-27 08:36 40.35055 52.12831 28523 ft 420 kts 281°
2026-04-27 08:36 40.35749 52.09126 28024 ft 417 kts 281°
2026-04-27 08:37 40.36437 52.05451 27514 ft 413 kts 281°
2026-04-27 08:37 40.37117 52.01806 27031 ft 410 kts 281°
2026-04-27 08:37 40.37792 51.98180 26524 ft 408 kts 281°
2026-04-27 08:37 40.38237 51.95793 26194 ft 406 kts 281°
2026-04-27 08:38 40.39118 51.91044 25536 ft 403 kts 281°
2026-04-27 08:38 40.39779 51.87479 25037 ft 401 kts 281°
2026-04-27 08:38 40.40435 51.83930 24530 ft 400 kts 281°
2026-04-27 08:38 40.41088 51.80392 24028 ft 398 kts 281°
2026-04-27 08:39 40.41738 51.76865 23513 ft 397 kts 281°
2026-04-27 08:39 40.42383 51.73359 22948 ft 395 kts 281°
2026-04-27 08:39 40.43024 51.69870 22428 ft 391 kts 281°
2026-04-27 08:39 40.43657 51.66418 21926 ft 387 kts 281°
2026-04-27 08:40 40.44276 51.63039 21446 ft 384 kts 281°
2026-04-27 08:40 40.44896 51.59646 20929 ft 381 kts 281°
2026-04-27 08:40 40.45510 51.56278 20431 ft 378 kts 281°
2026-04-27 08:40 40.46120 51.52932 19924 ft 375 kts 281°
2026-04-27 08:41 40.46485 51.50728 19585 ft 373 kts 277°
2026-04-27 08:41 40.46865 51.47379 19138 ft 368 kts 275°
2026-04-27 08:41 40.47198 51.44061 18670 ft 365 kts 275°
2026-04-27 08:41 40.47519 51.40761 18183 ft 363 kts 275°
2026-04-27 08:42 40.47833 51.37479 17650 ft 361 kts 275°
2026-04-27 08:42 40.48140 51.34230 17159 ft 357 kts 274°
2026-04-27 08:42 40.48539 51.29977 16543 ft 352 kts 274°
2026-04-27 08:42 40.48739 51.27826 16236 ft 350 kts 274°
2026-04-27 08:43 40.49029 51.24706 15755 ft 347 kts 274°
2026-04-27 08:43 40.49319 51.21569 15294 ft 345 kts 275°
2026-04-27 08:43 40.49607 51.18445 14831 ft 343 kts 275°
2026-04-27 08:43 40.49893 51.15348 14365 ft 341 kts 275°
2026-04-27 08:44 40.50175 51.12268 13906 ft 339 kts 275°
2026-04-27 08:44 40.50455 51.09209 13422 ft 336 kts 274°
2026-04-27 08:44 40.50732 51.06176 12952 ft 333 kts 274°
2026-04-27 08:44 40.51005 51.03174 12501 ft 330 kts 274°
2026-04-27 08:45 40.51276 51.00188 12058 ft 328 kts 274°
2026-04-27 08:45 40.51540 50.97269 11594 ft 325 kts 274°
2026-04-27 08:45 40.51679 50.94325 11166 ft 320 kts 265°
2026-04-27 08:45 40.51182 50.91522 10782 ft 313 kts 243°
2026-04-27 08:46 40.49973 50.89152 10713 ft 315 kts 229°
2026-04-27 08:46 40.48503 50.87010 10635 ft 317 kts 227°
2026-04-27 08:46 40.47005 50.84893 10539 ft 316 kts 227°
2026-04-27 08:46 40.45513 50.82775 10434 ft 315 kts 227°
2026-04-27 08:47 40.44027 50.80656 10318 ft 315 kts 227°
2026-04-27 08:47 40.42545 50.78541 10201 ft 315 kts 227°
2026-04-27 08:47 40.41069 50.76433 10114 ft 310 kts 227°
2026-04-27 08:47 40.39663 50.74422 10007 ft 296 kts 227°
2026-04-27 08:48 40.38303 50.72478 9889 ft 282 kts 227°
2026-04-27 08:48 40.37005 50.70624 9804 ft 272 kts 227°
2026-04-27 08:48 40.35721 50.68792 9716 ft 274 kts 227°
2026-04-27 08:48 40.34432 50.66954 9620 ft 274 kts 227°
2026-04-27 08:49 40.33144 50.65119 9515 ft 273 kts 227°
2026-04-27 08:49 40.31858 50.63286 9424 ft 273 kts 227°
2026-04-27 08:49 40.30576 50.61461 9338 ft 272 kts 227°
2026-04-27 08:49 40.29298 50.59642 9249 ft 271 kts 227°
2026-04-27 08:50 40.28036 50.57848 9146 ft 271 kts 227°
2026-04-27 08:50 40.26760 50.56033 9063 ft 271 kts 227°
2026-04-27 08:50 40.25484 50.54220 8976 ft 271 kts 227°
2026-04-27 08:50 40.24207 50.52405 8883 ft 271 kts 227°
2026-04-27 08:51 40.23035 50.50481 8779 ft 270 kts 234°
2026-04-27 08:51 40.21977 50.48449 8702 ft 270 kts 236°
2026-04-27 08:51 40.20938 50.46412 8614 ft 269 kts 236°
2026-04-27 08:51 40.19895 50.44373 8516 ft 269 kts 236°
2026-04-27 08:52 40.18856 50.42346 8432 ft 268 kts 236°
2026-04-27 08:52 40.17828 50.40347 8342 ft 268 kts 236°
2026-04-27 08:52 40.16787 50.38324 8257 ft 268 kts 236°
2026-04-27 08:52 40.15750 50.36312 8160 ft 263 kts 236°
2026-04-27 08:53 40.14753 50.34376 8047 ft 251 kts 236°
2026-04-27 08:53 40.13800 50.32530 7934 ft 239 kts 236°
2026-04-27 08:53 40.12889 50.30766 7833 ft 229 kts 236°
2026-04-27 08:53 40.12018 50.29076 7760 ft 221 kts 237°
2026-04-27 08:54 40.11163 50.27410 7754 ft 221 kts 237°
2026-04-27 08:54 40.10318 50.25767 7758 ft 221 kts 236°
2026-04-27 08:54 40.09460 50.24101 7755 ft 221 kts 236°
2026-04-27 08:54 40.08602 50.22436 7754 ft 221 kts 237°
2026-04-27 08:55 40.07803 50.20723 7756 ft 221 kts 245°
2026-04-27 08:55 40.07314 50.18825 7764 ft 221 kts 255°
2026-04-27 08:55 40.06945 50.16873 7759 ft 221 kts 256°
2026-04-27 08:55 40.06586 50.14919 7759 ft 221 kts 255°
2026-04-27 08:56 40.06223 50.12968 7759 ft 221 kts 255°
2026-04-27 08:56 40.05862 50.11043 7754 ft 221 kts 255°
2026-04-27 08:56 40.05676 50.09054 7765 ft 222 kts 269°
2026-04-27 08:56 40.05787 50.07040 7758 ft 223 kts 274°
2026-04-27 08:57 40.06126 50.03021 7758 ft 223 kts 274°
2026-04-27 08:57 40.06290 50.01015 7757 ft 223 kts 274°
2026-04-27 08:57 40.06481 49.99007 7749 ft 224 kts 278°
2026-04-27 08:58 40.06985 49.97081 7752 ft 226 kts 291°
2026-04-27 08:58 40.07669 49.95233 7755 ft 226 kts 293°
2026-04-27 08:58 40.08364 49.93417 7755 ft 227 kts 293°
2026-04-27 08:58 40.09192 49.91662 7749 ft 230 kts 307°
2026-04-27 08:59 40.10506 49.90455 7750 ft 237 kts 336°
2026-04-27 08:59 40.12163 49.90266 7688 ft 247 kts
2026-04-27 08:59 40.13718 49.91246 7370 ft 255 kts 39°
2026-04-27 08:59 40.15040 49.92797 7025 ft 256 kts 38°
2026-04-27 09:00 40.16410 49.94277 6716 ft 255 kts 36°
2026-04-27 09:00 40.17783 49.95700 6247 ft 250 kts 34°
2026-04-27 09:00 40.18890 49.96828 5777 ft 250 kts 34°
2026-04-27 09:00 40.20243 49.98195 5221 ft 248 kts 34°
2026-04-27 09:01 40.21599 49.99564 4771 ft 243 kts 33°
2026-04-27 09:01 40.22935 50.00907 4333 ft 241 kts 33°
2026-04-27 09:01 40.24267 50.02246 3969 ft 243 kts 33°
2026-04-27 09:01 40.25609 50.03591 3685 ft 241 kts 33°
2026-04-27 09:02 40.26914 50.04907 3450 ft 232 kts 32°
2026-04-27 09:02 40.28180 50.06184 2869 ft 229 kts 32°
2026-04-27 09:02 40.29390 50.07400 2557 ft 209 kts 32°
2026-04-27 09:02 40.30595 50.08226 2404 ft 184 kts
2026-04-27 09:03 40.31766 50.08412 2284 ft 161 kts 353°
2026-04-27 09:03 40.32784 50.08193 2196 ft 141 kts 333°
2026-04-27 09:03 40.33730 50.07836 2130 ft 144 kts 336°
2026-04-27 09:03 40.34710 50.07523 2027 ft 146 kts 338°
2026-04-27 09:04 40.35708 50.07225 1922 ft 146 kts 337°
2026-04-27 09:04 40.36704 50.06927 1773 ft 147 kts 337°
2026-04-27 09:04 40.37690 50.06628 1578 ft 144 kts 336°
2026-04-27 09:04 40.38673 50.06317 1391 ft 146 kts 337°
2026-04-27 09:05 40.39658 50.06003 1214 ft 147 kts 337°
2026-04-27 09:05 40.40651 50.05692 999 ft 149 kts 338°
2026-04-27 09:05 40.41652 50.05377 806 ft 146 kts 339°
2026-04-27 09:05 40.42632 50.05068 618 ft 142 kts 342°
2026-04-27 09:06 40.43578 50.04774 425 ft 138 kts 342°
2026-04-27 09:06 40.44492 50.04486 263 ft 132 kts 340°
2026-04-27 09:06 40.45357 50.04211 96 ft 126 kts 342°
2026-04-27 09:06 40.46072 50.03985 -10 ft 121 kts 344°
2026-04-27 09:07 40.46639 50.03808 13 ft 44 kts 347°
2026-04-27 09:07 40.46787 50.03812 13 ft 12 kts 47°
2026-04-27 09:07 40.46800 50.03836 14 ft 0 kts 67°
2026-04-27 09:08 40.46801 50.03841 14 ft 6 kts 68°
2026-04-27 09:08 40.46831 50.03977 15 ft 20 kts 75°
2026-04-27 09:08 40.46865 50.04160 15 ft 22 kts 76°
2026-04-27 09:09 40.46899 50.04363 15 ft 24 kts 81°
2026-04-27 09:09 40.46913 50.04587 15 ft 26 kts 87°
2026-04-27 09:09 40.46916 50.04833 15 ft 28 kts 88°
2026-04-27 09:09 40.46924 50.05092 15 ft 30 kts 88°
2026-04-27 09:10 40.46931 50.05370 15 ft 31 kts 88°
2026-04-27 09:10 40.46938 50.05664 16 ft 33 kts 88°
2026-04-27 09:10 40.46945 50.05957 14 ft 25 kts 87°
2026-04-27 09:10 40.46907 50.06068 15 ft 14 kts 152°
2026-04-27 09:11 40.46805 50.06089 15 ft 16 kts 178°
2026-04-27 09:11 40.46682 50.06090 15 ft 19 kts 180°
2026-04-27 09:11 40.46541 50.06090 15 ft 22 kts 180°
2026-04-27 09:11 40.46383 50.06094 15 ft 24 kts 177°
2026-04-27 09:12 40.46208 50.06099 15 ft 26 kts 179°
2026-04-27 09:12 40.46018 50.06100 14 ft 28 kts 180°
2026-04-27 09:12 40.45873 50.06072 15 ft 10 kts 227°
2026-04-27 09:12 40.45847 50.05972 15 ft 18 kts 264°
2026-04-27 09:13 40.45844 50.05848 15 ft 0 kts 268°